Wind_Speed
3 3 2 2 3 3 3 4 5 5 5 6 6 7 7 7 7 7 7 7 7 7 6 6 6 6 6 5 4 3 2 2 2 1 1 1 2 2 2 3 3 3 4
6 6 5 4 4 5 5 5 6 6 6 7 7 8 8 8 9 9 9 8 8 8 8 7 7 7 6 5 5 4 3 3 3 3 2 2 2 2 2 2 2 3 3
8 7 7 6 6 6 6 6 7 7 8 8 8 8 9 9 9 9 9 9 9 9 9 8 8 8 7 6 5 5 4 4 4 3 3 2 2 2 1 1 1 2 2
9 8 8 8 7 7 7 7 8 8 9 9 9 9 10 10 10 10 10 10 10 10 10 10 9 9 8 8 6 6 6 5 4 4 4 3 3 2 1 1 1 1 1
11 10 10 9 9 8 8 8 9 9 9 10 10 10 11 11 12 11 11 11 12 11 11 10 10 10 10 9 8 7 7 6 6 5 5 5 4 4 3 2 2 2 1
12 11 11 11 10 10 10 10 10 10 11 11 11 12 12 12 13 13 13 13 13 13 12 12 11 11 11 10 9 8 7 7 7 7 6 6 6 5 5 4 4 3 3
12 12 12 12 11 11 11 12 12 12 12 12 13 13 13 13 14 14 14 14 14 14 14 14 13 13 12 12 11 9 8 8 9 8 8 8 7 7 7 6 5 5 4
12 12 12 12 13 13 13 13 13 14 14 14 14 14 14 15 15 15 15 16 16 16 16 16 15 15 14 13 12 11 10 10 10 10 10 9 9 9 9 8 7 6 6
13 12 12 13 14 14 14 15 15 15 15 15 15 16 16 16 17 17 17 17 17 17 17 17 17 16 16 15 14 13 12 11 12 12 12 11 11 11 10 10 9 8 8
14 12 13 13 14 15 15 16 16 16 17 17 17 16 17 17 18 18 19 18 18 19 19 19 18 18 17 17 16 15 14 13 14 14 14 13 12 13 12 11 10 10 10
13 12 13 15 15 16 16 17 17 17 18 18 18 17 17 17 18 19 19 20 20 20 20 20 20 19 19 18 18 17 16 16 15 16 16 15 15 14 14 14 13 12 12
14 12 13 14 15 17 17 17 18 18 18 18 18 18 18 19 19 20 21 21 21 20 20 21 20 19 19 20 20 19 18 18 17 17 17 17 16 16 15 15 15 14 14
14 14 13 13 15 16 17 17 18 18 18 18 18 19 19 19 20 20 20 21 22 21 21 21 21 21 21 21 21 21 20 19 19 19 18 19 19 18 18 17 16 16 15
15 14 14 13 14 16 16 16 18 19 18 19 19 20 21 21 21 21 21 22 22 22 23 23 21 21 21 21 22 22 21 21 21 20 20 20 20 20 20 19 18 17 17
15 15 15 14 15 16 17 17 18 18 20 20 21 20 22 22 23 22 22 22 23 23 23 23 23 23 23 23 22 23 22 21 21 21 20 20 21 21 20 19 19 19 19
15 16 16 16 15 16 17 17 17 18 19 20 20 22 22 22 23 23 23 23 24 24 23 23 23 24 24 23 23 23 23 23 23 22 21 21 22 22 21 20 20 20 20
16 16 16 15 16 17 17 18 18 19 20 21 21 22 23 23 23 24 25 25 24 24 24 25 25 25 25 24 24 24 24 24 24 24 23 23 22 22 22 21 21 21 21
16 16 16 17 16 17 18 18 19 21 21 22 23 23 24 24 24 24 24 25 25 25 26 26 25 25 26 26 25 25 24 25 25 25 25 25 24 24 24 24 24 23 23
16 16 17 18 17 17 19 19 20 22 23 23 23 24 25 24 24 24 25 25 25 25 26 27 26 25 26 27 27 26 26 25 26 27 26 26 26 26 26 25 24 24 24
16 16 17 18 18 19 20 21 22 23 24 25 25 26 27 26 26 26 26 27 27 26 26 27 27 28 28 28 28 28 29 28 27 28 28 27 28 27 26 25 25 25 26
17 17 18 18 19 20 21 22 22 23 25 26 26 27 27 27 28 28 28 29 28 28 28 28 28 28 29 28 29 28 28 28 27 28 28 28 27 28 28 27 26 26 26
17 18 19 19 20 21 22 22 23 24 25 26 27 27 28 29 29 28 29 29 29 29 29 30 29 29 29 29 29 29 28 28 28 28 28 28 28 29 28 28 27 28 28
18 19 20 20 21 22 22 23 24 25 25 26 27 27 28 29 29 29 29 29 29 29 29 30 30 30 30 30 30 30 30 28 28 28 28 28 28 29 29 29 29 29 29
18 19 20 21 22 22 23 23 24 25 26 26 27 27 27 28 29 29 29 29 29 29 29 29 29 30 30 30 30 30 31 30 29 28 28 28 28 29 30 31 30 29 30
18 19 20 21 22 23 24 24 25 26 26 26 27 27 27 28 28 29 29 28 28 29 29 28 29 29 29 29 30 30 31 31 31 31 31 30 29 29 30 31 31 32 32
20 20 21 22 23 24 25 25 26 27 27 28 28 27 27 27 27 27 27 27 28 28 28 28 28 29 29 29 29 30 31 31 31 32 32 31 31 30 30 30 31 32 33
Wind_Direction
284 282 252 241 235 231 238 246 253 258 264 265 267 271 277 282 288 293 292 294 298 301 301 304 307 309 311 308 301 293 277 257 243 219 198 180 158 141 126 107 101 95 94
280 281 267 258 247 242 245 250 256 259 264 268 271 272 275 282 288 292 293 293 296 298 298 299 299 301 300 299 294 291 282 267 253 234 217 197 180 160 129 108 100 91 87
277 279 273 264 252 249 251 255 257 260 264 268 273 276 277 281 285 289 291 292 293 294 294 295 295 297 298 297 291 287 282 274 264 251 236 218 205 189 167 126 117 105 96
271 272 270 264 258 255 255 259 260 262 264 266 270 274 276 278 280 284 286 288 289 290 290 291 291 292 295 295 290 285 282 277 270 261 253 242 229 221 220 203 172 153 132
265 265 266 263 263 260 259 261 262 262 263 265 268 271 274 276 278 280 283 284 284 284 285 285 286 286 288 289 286 283 282 279 274 266 260 253 236 232 234 231 223 214 194
260 263 264 262 262 260 259 259 261 262 262 263 265 268 271 273 275 277 279 280 281 280 281 280 280 281 282 282 280 278 277 275 273 268 262 256 247 239 237 238 238 231 219
256 261 263 260 259 258 257 256 256 258 260 260 262 264 266 269 272 274 276 277 278 279 278 278 277 277 276 277 275 273 270 269 266 265 265 261 249 244 240 243 242 235 224
251 256 258 259 259 259 256 255 254 255 258 259 260 263 266 268 270 271 272 273 275 275 275 275 274 274 274 274 273 270 266 265 263 263 264 259 248 245 244 243 240 237 230
250 248 252 257 259 257 256 255 255 255 258 261 262 263 265 266 268 269 270 271 271 272 272 272 272 271 272 272 271 269 266 264 265 265 263 259 252 247 246 243 241 241 238
240 241 249 254 254 254 254 255 255 256 258 261 263 264 265 266 267 268 268 268 267 267 268 268 269 270 270 269 267 266 265 264 263 265 261 258 256 251 247 242 244 244 242
234 238 244 250 254 256 256 255 256 257 259 260 260 262 264 266 267 268 268 268 269 267 266 266 267 269 269 266 264 264 264 264 264 264 262 257 255 252 247 245 247 246 244
241 241 247 251 256 259 258 256 256 259 259 259 260 261 263 265 267 269 269 268 268 267 266 266 265 266 268 266 264 262 263 263 263 264 263 259 254 251 249 247 248 247 247
250 253 256 254 255 256 255 257 259 259 261 262 261 263 265 267 269 270 270 269 267 267 267 267 266 265 266 264 262 261 262 263 263 263 261 259 256 253 250 248 248 246 247
260 263 262 260 260 255 256 258 260 261 262 262 265 265 266 269 269 269 270 271 268 267 268 267 268 266 265 264 261 260 262 262 263 262 260 258 255 255 252 248 247 247 248
267 271 270 273 268 259 259 259 263 263 263 264 265 268 269 269 269 269 270 271 269 268 269 267 266 266 264 264 261 260 259 261 262 263 261 258 255 252 248 246 247 247 247
271 276 278 270 267 263 265 263 268 270 267 268 270 271 273 272 271 271 269 270 269 268 267 266 269 267 265 264 263 261 259 260 261 261 260 257 255 252 248 247 249 247 248
273 277 278 272 272 271 272 272 267 268 270 272 273 274 275 272 273 274 271 271 271 270 268 267 266 266 264 267 266 263 263 261 260 258 258 256 255 252 247 248 248 249 249
277 277 275 280 283 280 277 277 274 271 272 273 274 275 274 274 275 275 274 273 272 272 270 268 267 265 263 263 263 263 265 263 260 258 258 255 254 252 250 250 247 249 250
280 279 282 283 285 285 281 281 281 277 275 274 274 275 275 275 274 275 274 273 273 273 271 269 267 266 263 262 261 261 263 263 261 261 259 256 252 252 252 251 248 250 250
283 286 286 286 288 287 286 284 283 280 279 276 276 277 276 276 274 274 275 274 273 273 272 271 267 266 265 262 262 261 261 263 262 261 259 255 252 251 250 249 250 251 251
287 290 290 289 289 289 288 286 283 281 280 279 278 278 276 275 276 276 275 275 273 272 270 270 268 266 264 263 263 263 263 262 260 259 258 255 253 251 251 251 251 252 252
287 289 289 289 289 289 288 286 285 285 283 281 279 278 278 276 276 276 275 275 273 272 271 269 267 265 264 264 263 263 263 261 259 256 255 255 254 253 253 251 250 252 252
286 287 288 288 287 288 288 287 286 286 285 283 281 279 278 276 276 277 276 277 275 273 271 270 266 264 264 265 264 262 261 260 259 256 253 254 255 253 253 251 251 253 254
286 287 288 289 287 287 287 287 286 286 285 283 282 281 279 278 278 277 277 278 275 272 271 270 268 266 265 264 263 262 261 261 259 257 255 256 255 253 252 251 250 253 255
289 289 289 291 290 289 289 288 288 287 286 284 283 282 281 280 278 277 277 278 275 272 272 272 270 268 267 266 264 261 261 260 260 259 257 257 257 256 256 255 253 253 255
294 293 293 293 292 291 290 290 289 288 287 286 285 283 281 281 280 278 277 277 276 273 271 270 269 268 267 266 265 262 261 261 260 259 257 257 259 260 258 257 256 255 254
Height
5907 5907 5907 5907 5907 5907 5907 5908 5908 5908 5908 5908 5908 5908 5908 5908 5908 5908 5907 5907 5906 5906 5905 5904 5903 5903 5902 5901 5900 5899 5898 5898 5897 5896 5896 5895 5895 5895 5894 5893 5893 5892 5892
5907 5906 5907 5906 5906 5907 5907 5907 5907 5908 5908 5908 5908 5908 5907 5907 5907 5907 5907 5906 5906 5905 5905 5904 5903 5902 5901 5900 5900 5899 5898 5898 5897 5896 5896 5895 5895 5894 5894 5893 5893 5893 5892
5906 5906 5906 5906 5906 5906 5906 5906 5906 5907 5907 5907 5907 5907 5907 5906 5906 5906 5906 5906 5905 5904 5904 5903 5902 5901 5901 5900 5899 5898 5898 5897 5897 5896 5896 5895 5895 5894 5894 5893 5893 5893 5892
5904 5904 5904 5904 5904 5905 5905 5905 5905 5905 5906 5906 5906 5906 5906 5905 5905 5905 5905 5904 5904 5903 5903 5902 5901 5900 5900 5899 5898 5898 5897 5896 5896 5895 5895 5895 5894 5894 5893 5893 5893 5893 5892
5902 5902 5903 5903 5903 5903 5904 5904 5904 5904 5904 5904 5904 5904 5904 5904 5904 5904 5903 5903 5902 5902 5901 5900 5900 5899 5898 5898 5897 5897 5896 5895 5895 5895 5894 5894 5894 5893 5893 5893 5893 5892 5892
5899 5900 5901 5901 5901 5902 5902 5902 5902 5902 5902 5902 5902 5902 5902 5902 5902 5902 5902 5901 5901 5900 5900 5899 5898 5897 5897 5896 5896 5896 5895 5894 5894 5893 5893 5893 5893 5893 5893 5893 5892 5892 5892
5897 5897 5898 5899 5899 5899 5900 5900 5900 5900 5900 5900 5900 5900 5900 5900 5900 5900 5899 5899 5899 5898 5898 5897 5896 5895 5895 5894 5894 5894 5894 5893 5892 5892 5892 5892 5892 5892 5892 5892 5892 5892 5891
5894 5895 5896 5896 5897 5897 5897 5897 5897 5897 5897 5897 5897 5897 5897 5897 5897 5897 5897 5896 5896 5896 5895 5894 5894 5893 5893 5892 5892 5892 5892 5891 5891 5891 5891 5891 5890 5890 5890 5890 5891 5891 5891
5890 5891 5892 5893 5893 5894 5894 5894 5894 5894 5894 5894 5895 5894 5894 5894 5894 5894 5893 5893 5893 5893 5892 5892 5891 5891 5890 5890 5890 5890 5890 5890 5889 5889 5889 5889 5889 5889 5889 5889 5889 5890 5890
5886 5887 5889 5889 5890 5890 5890 5890 5891 5891 5891 5891 5891 5891 5891 5890 5890 5890 5889 5889 5889 5889 5889 5888 5888 5888 5887 5887 5887 5887 5887 5887 5887 5887 5886 5886 5886 5886 5887 5887 5887 5888 5888
5883 5884 5885 5886 5887 5887 5887 5887 5887 5887 5887 5887 5887 5887 5887 5886 5886 5886 5885 5885 5885 5885 5885 5885 5884 5884 5884 5883 5883 5883 5883 5883 5884 5884 5884 5884 5884 5883 5884 5884 5885 5885 5886
5880 5881 5882 5883 5883 5883 5883 5883 5884 5883 5883 5883 5883 5883 5882 5882 5882 5881 5881 5881 5880 5880 5880 5880 5880 5880 5880 5879 5879 5879 5879 5879 5880 5880 5880 5881 5881 5881 5881 5882 5882 5883 5883
5876 5877 5878 5879 5879 5879 5879 5880 5879 5879 5879 5879 5879 5878 5878 5878 5877 5877 5876 5876 5875 5875 5876 5876 5876 5875 5875 5875 5875 5875 5875 5875 5876 5876 5876 5877 5877 5878 5878 5879 5879 5880 5881
5873 5873 5874 5875 5875 5876 5876 5876 5876 5875 5875 5874 5874 5874 5874 5873 5873 5872 5871 5871 5870 5870 5871 5871 5871 5871 5870 5870 5870 5870 5871 5871 5871 5872 5872 5872 5873 5873 5874 5875 5876 5876 5877
5869 5870 5870 5870 5871 5872 5872 5872 5872 5871 5871 5870 5869 5869 5868 5868 5868 5867 5867 5866 5866 5866 5866 5865 5866 5866 5866 5865 5865 5865 5866 5867 5867 5867 5868 5868 5869 5869 5870 5870 5871 5872 5873
5865 5866 5866 5866 5867 5867 5868 5867 5867 5866 5866 5865 5864 5864 5863 5863 5862 5862 5862 5861 5860 5860 5860 5860 5860 5861 5861 5860 5860 5860 5861 5861 5862 5862 5863 5863 5864 5864 5865 5866 5867 5868 5869
5863 5863 5862 5862 5863 5862 5862 5862 5861 5861 5861 5860 5859 5859 5858 5857 5857 5856 5856 5855 5855 5854 5854 5854 5854 5854 5855 5855 5855 5855 5856 5856 5856 5857 5858 5858 5859 5860 5860 5861 5862 5863 5864
5859 5859 5859 5859 5859 5858 5857 5856 5855 5855 5855 5855 5854 5853 5853 5852 5851 5850 5850 5849 5849 5848 5848 5848 5847 5848 5849 5849 5849 5850 5850 5850 5850 5850 5851 5852 5853 5854 5855 5856 5857 5858 5859
5856 5856 5854 5854 5854 5853 5852 5851 5850 5850 5849 5849 5848 5848 5847 5846 5845 5844 5843 5843 5842 5842 5841 5841 5841 5842 5842 5842 5843 5843 5844 5844 5844 5844 5845 5846 5847 5848 5850 5851 5852 5853 5854
5852 5851 5851 5849 5848 5847 5847 5846 5846 5845 5843 5842 5841 5841 5840 5840 5839 5838 5837 5836 5836 5835 5834 5834 5834 5835 5835 5836 5836 5836 5837 5838 5838 5838 5838 5839 5841 5842 5843 5845 5846 5847 5848
5847 5846 5846 5845 5843 5843 5842 5841 5840 5839 5837 5836 5835 5834 5833 5833 5832 5832 5831 5829 5829 5828 5827 5827 5827 5827 5828 5828 5829 5829 5830 5831 5831 5832 5832 5833 5834 5836 5837 5838 5840 5841 5842
5843 5842 5841 5840 5839 5838 5837 5836 5834 5833 5831 5830 5829 5828 5826 5826 5825 5824 5823 5822 5821 5821 5820 5820 5819 5820 5820 5821 5821 5822 5823 5824 5824 5825 5826 5826 5827 5829 5830 5832 5833 5834 5836
5839 5838 5837 5835 5834 5832 5831 5830 5828 5827 5825 5824 5822 5821 5820 5819 5818 5817 5816 5815 5814 5813 5812 5812 5812 5812 5813 5813 5814 5815 5816 5816 5817 5819 5819 5820 5821 5822 5823 5825 5826 5827 5828
5835 5834 5832 5830 5828 5827 5825 5824 5822 5820 5819 5817 5815 5814 5813 5812 5810 5809 5808 5807 5806 5805 5805 5804 5804 5804 5805 5805 5806 5807 5808 5809 5810 5811 5812 5813 5814 5815 5816 5818 5819 5820 5821
5831 5829 5827 5825 5823 5821 5819 5817 5815 5814 5812 5810 5808 5807 5805 5804 5803 5801 5801 5800 5799 5798 5797 5797 5797 5797 5797 5798 5798 5799 5800 5801 5802 5804 5805 5806 5807 5808 5809 5810 5811 5812 5813
5825 5823 5821 5819 5817 5815 5813 5811 5809 5807 5805 5803 5801 5799 5798 5796 5795 5794 5793 5792 5791 5791 5790 5790 5789 5789 5789 5790 5790 5791 5792 5793 5794 5795 5797 5798 5799 5800 5801 5802 5803 5804 5804